Miscellaneous Local Product
Issued by NWS Hastings, NE

Home | Current Version | Previous Version | Graphics & Text | Print | Product List | Glossary On
Versions: 1 2 3 4 5 6 7 8 9 10 11 12 13 14 15 16 17 18 19 20 21 22 23 24 25 26 27 28 29 30 31 32 33 34 35 36 37 38 39 40 41 42 43 44 45 46 47 48 49 50
461
AXUS43 KGID 241502
MISGRI

GID CWA HOURLY WEATHER ROUNDUP
NATIONAL WEATHER SERVICE HASTINGS NE
1000 AM CDT SUN JUL 24 2016

NOTE: "FAIR" INDICATES FEW OR NO CLOUDS BELOW 12,000 FEET WITH NO
SIGNIFICANT WEATHER AND/OR OBSTRUCTIONS TO VISIBILITY.

...SOUTH CENTRAL NEBRASKA...

CITY           SKY/WX    TMP DP  RH WIND       PRES   REMARKS
GRAND ISLAND   CLOUDY    77  63  61 VRB3      30.06R
HASTINGS       CLOUDY    77  63  61 NE8       30.06R
KEARNEY        PTSUNNY   79  63  57 E12       30.07S
ORD            CLOUDY    75  64  68 E8        30.04R
YORK           CLOUDY    77  66  69 E7        30.03R
AURORA         CLOUDY    78  62  58 CALM      30.05R
LEXINGTON      CLOUDY    73  62  68 E6        30.08R
HOLDREGE       CLOUDY    75  63  66 E16       30.05S
HEBRON         PTSUNNY   80  69  69 NE3       29.99S

...NEBRASKA PANHANDLE...

CITY           SKY/WX    TMP DP  RH WIND       PRES   REMARKS
CHADRON        CLOUDY    70  50  49 E8        30.17R
ALLIANCE       CLOUDY    69  58  67 NE16      30.14S
SCOTTSBLUFF    CLOUDY    76  54  46 E14G22    30.13R
SIDNEY         LGT RAIN  73  47  39 SE23G30   30.16F

...WESTERN AND NORTH CENTRAL NEBRASKA...

CITY           SKY/WX    TMP DP  RH WIND       PRES   REMARKS
VALENTINE      SUNNY     76  51  41 N5        30.12R
AINSWORTH      MOSUNNY   73  58  59 NE7       30.11R
ONEILL         CLOUDY    75  58  57 NE13      30.06S
BROKEN BOW     CLOUDY    71  64  78 E6        30.09R
IMPERIAL       SUNNY     76  55  48 NE8       30.14R
NORTH PLATTE   CLOUDY    75  61  61 NW6       30.14R
MCCOOK         MOSUNNY   78  61  55 E14       30.06F

...EASTERN NEBRASKA...

CITY           SKY/WX    TMP DP  RH WIND       PRES   REMARKS
NORFOLK        MOSUNNY   79  62  56 N9        30.03R
SO SIOUX CITY  SUNNY     85  60  42 N8        29.98R
TEKAMAH        MOSUNNY   82  67  60 NW9       29.97R
COLUMBUS       MOSUNNY   77  63  61 N6        30.02R
ALBION         CLOUDY    76  63  64 NE6       30.05R
OMAHA EPPLEY   MOSUNNY   84  67  56 N12       29.96R
OFFUTT AFB     MOSUNNY   84  67  57 NE9       29.96R
MILLARD        MOSUNNY   85  64  50 CALM      29.96R
LINCOLN        CLOUDY    82  69  64 NE6       30.00R
NEBRASKA CITY  MOSUNNY   83  77  81 N6        29.96R HX  93
BEATRICE       CLOUDY    88  62  42 NE8       29.97S
FALLS CITY     MOSUNNY   87  77  72 NW8       29.91S HX  99

...NORTHERN KANSAS...

CITY           SKY/WX    TMP DP  RH WIND       PRES   REMARKS
GOODLAND       SUNNY     78  61  55 E14       30.09R
HILL CITY      CLOUDY    74  66  76 E9        30.01R
NORTON         SUNNY     75  55  50 NE15G21   30.01F
SMITH CENTER   LGT RAIN  72  68  88 E15       29.98F
BELOIT         MOSUNNY   75  72  88 CALM      29.96R
HAYS           PTSUNNY   79  63  57 E8        29.98S
RUSSELL        CLOUDY    79  71  76 E9        29.95S
CONCORDIA      CLOUDY    75  71  87 SE5       29.95F
SALINA         CLOUDY    83  71  67 SE7       29.94S
TOPEKA         MOSUNNY   90  73  57 CALM      29.91S HX  98



USA.gov is the U.S. government's official web portal to all federal, state and local government web resources and services.